AirNav   Air Wisconsin pilot careers
 
 555 users online  

5K6 Westosha Airport
Wilmot, Wisconsin, USA

GOING TO WILMOT?


FAA INFORMATION EFFECTIVE 31 JANUARY 2019

Location

FAA Identifier: 5K6
Lat/Long: 42-30-50.9000N / 088-12-18.6000W
42-30.848333N / 088-12.310000W
42.5141389 / -88.2051667
(estimated)
Elevation: 850 ft. / 259 m (estimated)
Variation: 01W (1985)
From city: 1 mile W of WILMOT, WI
Time zone: UTC -6 (UTC -5 during Daylight Saving Time)
Zip code: 53105

Airport Operations

Airport use: Open to the public
Activation date: 09/1969
Control tower: no
ARTCC: CHICAGO CENTER
FSS: GREEN BAY FLIGHT SERVICE STATION
NOTAMs facility: GRB (NOTAM-D service available)
Attendance: 0800-1800
Pattern altitude: 1500 ft. MSL
Wind indicator: yes
Segmented circle: no
Lights: ACTVT LIRL RY 03/21 - CTAF.
Beacon: white-green (lighted land airport)
ACTVT ROTG BCN - CTAF.

Airport Communications

CTAF/UNICOM: 123.0
WX AWOS-3 at BUU (11 nm NW): 114.5 (262-757-0907)
WX ASOS at ENW (13 nm E): PHONE 262-652-7730
WX ASOS at UGN (16 nm E): PHONE 847-782-0876
WX AWOS-3PT at 57C (19 nm NW): 118.125 (262-642-1845)

Nearby radio navigation aids

VOR radial/distance  VOR name  Freq  Var
OBKr329/20.9NORTHBROOK VOR/DME113.0002W
BAEr172/36.3BADGER VOR/DME116.4002E
DPAr008/38.0DUPAGE VOR/DME108.4002E
JVLr091/39.9JANESVILLE VOR/DME114.3003E

 
NDB name  Hdg/Dist  Freq  Var  ID
CODEE252/8.338902WEN . -.
LAKE LAWN125/20.440402WLVV .-.. ...- ...-

Airport Services

Parking: tiedowns
Airframe service: NONE
Powerplant service: NONE
Bottled oxygen: NONE
Bulk oxygen: NONE

Runway Information

Runway 3/21

Dimensions: 2849 x 38 ft. / 868 x 12 m
Surface: asphalt/concrete, in fair condition
SW 400 FT CONC & NE 27 FT CONC; REST OF RY ASPH.
Runway edge lights: non-standard
RY 03/21 NSTD LIRL DUE TO HEIGHT; RY 03/21 HAS 3 THLD LGTS EACH SIDE.
RUNWAY 3  RUNWAY 21
Latitude: 42-30.614437N42-31.026953N
Longitude: 088-12.481047W088-12.179155W
Elevation: 849.3 ft.852.1 ft.
Gradient: 0.2%0.2%
Traffic pattern: leftleft
Displaced threshold: 36 ft.9 ft.
Markings: basic, in fair conditionbasic, in fair condition
Runway end identifier lights: nono
Obstructions: 11 ft. road, 200 ft. from runway, 18 ft. right of centerline
+14 FT ROAD 160 FT FM THLD 125 FT R.
none
RWY 21 +10' BRUSH 50' FM THR 0' B.

Airport Ownership and Management from official FAA records

Ownership: Privately-owned
Owner: THELEN SAND & GRAVEL, INC.
28955 WEST RTE 173
ANTIOCH, IL 60002
Phone 847-603-8868
OWNER DAN SHEPARD CELL: 708-408-3802
Manager: WESTOSHA AVIATION MANAGEMENT
BOX 246
WILMOT, WI 53192
Phone 847-603-8856

Airport Operational Statistics

Aircraft based on the field: 20
Single engine airplanes: 18
Multi engine airplanes: 1
Helicopters: 1
    
Aircraft operations: avg 25/day *
55% local general aviation
44% transient general aviation
<1% air taxi
* for 12-month period ending 03 June 2016

Additional Remarks

ARPT HAS NOISE ABATEMENT PROCEDURES CTC AMGR ON 262-862-6111.
RY 03/21 HAS A 60 FT DROP-OFF 10 FT FM NE END.

Instrument Procedures

There are no published instrument procedures at 5K6.

Some nearby airports with instrument procedures:

10C - Galt Field Airport (10 nm SW)
C02 - Grand Geneva Resort Airport (10 nm NW)
KBUU - Burlington Municipal Airport (11 nm N)
C81 - Campbell Airport (13 nm SE)
KENW - Kenosha Regional Airport (13 nm E)
KUGN - Waukegan National Airport (16 nm E)
57C - East Troy Municipal Airport (19 nm NW)
3CK - Lake in the Hills Airport (19 nm S)
 
Loc | Ops | Rwys | IFR | FBO | Links
Com | Nav | Svcs | Stats | Notes
Area around 5K6 (Westosha Airport)
 
Road maps at: MapQuest Bing Google
 
Aerial photo
WARNING: Photo may not be current or correct
Aerial photo of 5K6 (Westosha Airport)
Photo taken 09-Sep-2010
looking northwest from 3000FT MSL.

Do you have a better or more recent aerial photo of Westosha Airport that you would like to share? If so, please send us your photo.

 
Sectional chart

 
Airport distance calculator
Flying to Westosha Airport? Find the distance to fly.

From to 5K6

Sunrise and sunset
Times for 22-Feb-2019
 Local
(UTC-6)
 Zulu
(UTC)
Morning civil twilight06:1212:12
Sunrise06:4012:40
Sunset17:3223:32
Evening civil twilight18:0100:01

Current date and time
Zulu (UTC)  22-Feb-2019 12:01:23
Local (UTC-6)  22-Feb-2019 06:01:23
 
METAR
KBUU 
11nm N 
221155Z AUTO 00000KT 10SM CLR M15/M16 A3042 RMK AO2 T11461161 11118 21159
KENW 
13nm NE 
221153Z AUTO 00000KT 7SM CLR M09/M12 A3042 RMK AO2 SLP315 T10891117 11067 21089 53012 $
KUGN 
16nm E 
221155Z 32003KT 6SM HZ CLR M09/M13 A3042 RMK AO2 SLP321 T10941128 11067 21094 53013 $
K57C 
19nm NW 
221155Z AUTO 00000KT 7SM BKN110 M12/M14 A3041 RMK AO2 T11251137 11093 21143
TAF
KENW 
13nm NE 
221143Z 2212/2312 VRB04KT P6SM SCT120 FM230000 07006KT P6SM FEW240 FM230500 10009KT P6SM BKN170 FM231100 11012KT P6SM OVC045
NOTAMs
Click for the latest NOTAMs
NOTAMs are issued by the DoD/FAA and will open in a separate window not controlled by AirNav.

 

 
 

Aviation Businesses, Services, and Facilities

  
 Business Name 
 
 Contact 
 
 Services / Description 
 
Distance
 
Comments
  
Westosha Flying Club 847-603-8856
no information available

If you are affiliated with Westosha Flying Club and would like to show here your services, contact info, web link, logo, and more, click here
on airport  
   write
 

Would you like to see your business listed on this page?

 If your business provides an interesting product or service to pilots, flight crews, aircraft, or users of the Westosha Airport, you should consider listing it here.  To start the listing process, click on the button below
 
Add a business
 

Other Pages about Westosha Airport

Page from the Wisconsin airport directory (PDF)
 
Update a link
 
Copyright © AirNav, LLC. All rights reserved. Privacy Policy  Contact